Location: Maccacari
(45.1333°N, 11.1333°E)
Time: 23:11:55
(UTC+00:00)

S-56A Canister/Altair - Pass Details

Date: 21 June 2021
Orbit: 631 x 2501 km, 38.9° (Epoch: 30 July)

Event Time Altitude Azimuth Distance (km) Brightness Sun altitude
Exits shadow 01:58:40 - 174° (S) 2,207 9.5 -12.2°
Reaches altitude 10° 02:00:01 10° 158° (SSE) 2,030 9.4 -12.1°
Maximum altitude 02:00:40 10° 149° (SSE) 2,000 9.5 -12.0°
Drops below altitude 10° 02:01:19 10° 140° (SE) 2,010 9.6 -11.9°
Sets 02:05:52 0° 97° (E) 2,951 11.0 -11.4°
